Weather History for Thomson, GA

Change the Weather History Date:

Monday, February 11, 2013

  Actual Average (KDBN) Record (KDBN)
Temperature  
Mean Temperature 60 °F -  
Max Temperature 66 °F 59 °F 81 °F (1932)
Min Temperature 53 °F 31 °F 13 °F (1973)
Degree Days  
Heating Degree Days 6    
Growing Degree Days 10 (Base 50)    
Moisture  
Dew Point 58 °F    
Average Humidity 98    
Maximum Humidity 100    
Minimum Humidity 90    
Precipitation  
Precipitation 0.00 in - - ()
Sea Level Pressure  
Sea Level Pressure 30.14 in    
Wind  
Wind Speed 6 mph (SSW)    
Max Wind Speed 12 mph    
Max Gust Speed 20 mph    
Visibility 9 miles    
Events      
Averages and records for this station are not official NWS values.
T = Trace of Precipitation, MM = Missing Value Source: NWS Daily Summary

Daily Weather History Graph

Daily Weather History Graph

Search for Another Location

Airport:

Trip Planner

Search our weather history database for the weather conditions in past years. The results will help you decide how hot, cold, wet, or windy it might be!

Date:

Astronomy

Feb. 11, 2013 Rise Set
Actual Time 7:17 AM EST 6:11 PM EST
Civil Twilight 6:52 AM EST 6:36 PM EST
Nautical Twilight 6:22 AM EST 7:06 PM EST
Astronomical Twilight 5:53 AM EST 7:35 PM EST
Moon 7:48 AM EST (2/11) 7:58 PM EST (2/11)
Length of Visible Light 11h 44m
Length of Day
10h 53m
Waxing Crescent, 3% of the Moon is Illuminated
Feb 11
Waxing Crescent
Feb 17
First Quarter
Feb 25
Full
Mar 4
Last Quarter
Mar 11
New

Hourly Weather History & Observations

Time (EST) Temp. Dew Point Humidity Pressure Visibility Wind Dir Wind Speed Gust Speed Precip Events Conditions
12:15 AM 54.5 °F 54.5 °F 100% 30.23 in 4.0 mi ENE 4.6 mph - N/A   Overcast
12:35 AM 54.5 °F 54.5 °F 100% 30.21 in 5.0 mi East 3.5 mph - N/A   Overcast
12:55 AM 54.7 °F 54.7 °F 100% 30.19 in 7.0 mi East 5.8 mph - N/A   Overcast
1:15 AM 55.0 °F 55.0 °F 100% 30.19 in 7.0 mi ESE 4.6 mph - N/A   Overcast
1:35 AM 55.4 °F 55.4 °F 100% 30.18 in 7.0 mi SE 5.8 mph - N/A   Overcast
1:55 AM 55.4 °F 55.4 °F 100% 30.16 in 5.0 mi SE 11.5 mph - N/A   Overcast
2:15 AM 55.6 °F 55.6 °F 100% 30.15 in 7.0 mi SE 6.9 mph - N/A   Overcast
2:35 AM 55.8 °F 55.8 °F 100% 30.14 in 10.0 mi SSE 8.1 mph - N/A   Overcast
2:55 AM 55.9 °F 55.9 °F 100% 30.13 in 10.0 mi SSE 6.9 mph - N/A   Overcast
3:15 AM 56.3 °F 56.3 °F 100% 30.13 in 10.0 mi SSE 6.9 mph - N/A   Overcast
3:35 AM 56.3 °F 56.3 °F 100% 30.14 in 7.0 mi South 5.8 mph - N/A   Overcast
3:55 AM 56.5 °F 56.5 °F 100% 30.13 in 10.0 mi South 6.9 mph - N/A   Overcast
4:15 AM 56.7 °F 56.7 °F 100% 30.15 in 7.0 mi South 5.8 mph - N/A   Overcast
4:35 AM 57.2 °F 57.2 °F 100% 30.14 in 5.0 mi South 6.9 mph - N/A   Overcast
4:55 AM 57.4 °F 57.4 °F 100% 30.15 in 7.0 mi South 6.9 mph - N/A   Overcast
5:15 AM 57.6 °F 57.6 °F 100% 30.15 in 7.0 mi South 9.2 mph - N/A   Overcast
5:35 AM 57.9 °F 57.9 °F 100% 30.14 in 7.0 mi South 9.2 mph 17.3 mph N/A   Overcast
5:55 AM 58.3 °F 58.3 °F 100% 30.14 in 10.0 mi South 10.4 mph 17.3 mph N/A   Overcast
6:15 AM 58.6 °F 58.6 °F 100% 30.14 in 10.0 mi South 8.1 mph 16.1 mph N/A   Overcast
6:35 AM 58.3 °F 58.3 °F 100% 30.13 in 10.0 mi South 6.9 mph - N/A   Overcast
6:55 AM 58.1 °F 58.1 °F 100% 30.12 in 10.0 mi SSE 8.1 mph 17.3 mph N/A   Overcast
7:15 AM 58.3 °F 58.3 °F 100% 30.13 in 10.0 mi South 5.8 mph 17.3 mph N/A   Overcast
7:35 AM 58.5 °F 58.5 °F 100% 30.15 in 10.0 mi SSW 6.9 mph 17.3 mph N/A   Overcast
7:55 AM 58.6 °F 58.6 °F 100% 30.16 in 10.0 mi SSW 5.8 mph - N/A   Overcast
8:15 AM 58.8 °F 58.8 °F 100% 30.15 in 7.0 mi South 5.8 mph - N/A   Overcast
8:35 AM 59.0 °F 59.0 °F 100% 30.14 in 7.0 mi South 8.1 mph - N/A   Overcast
8:55 AM 59.0 °F 59.0 °F 100% 30.13 in 10.0 mi South 11.5 mph 19.6 mph N/A   Overcast
9:15 AM 59.2 °F 59.2 °F 100% 30.14 in 10.0 mi SSW 8.1 mph 19.6 mph N/A   Overcast
9:35 AM 59.2 °F 59.2 °F 100% 30.10 in 10.0 mi South 10.4 mph - N/A   Overcast
9:55 AM 59.9 °F 59.9 °F 100% 30.09 in 10.0 mi South 9.2 mph 18.4 mph N/A   Mostly Cloudy
10:15 AM 60.8 °F 60.8 °F 100% 30.11 in 10.0 mi SSW 9.2 mph 16.1 mph N/A   Overcast
10:35 AM 61.9 °F 61.9 °F 100% 30.15 in 10.0 mi SW 8.1 mph - N/A   Overcast
10:55 AM 62.8 °F 62.6 °F 99% 30.15 in 10.0 mi SW 6.9 mph 11.5 mph N/A   Overcast
11:15 AM 63.5 °F 62.8 °F 97% 30.15 in 10.0 mi SW 8.1 mph - N/A   Overcast
11:35 AM 65.1 °F 63.7 °F 95% 30.15 in 10.0 mi SW 8.1 mph - N/A   Overcast
11:55 AM 65.1 °F 63.3 °F 94% 30.15 in 10.0 mi WSW 10.4 mph - N/A   Overcast
12:15 PM 65.3 °F 63.3 °F 93% 30.14 in 10.0 mi SW 5.8 mph - N/A   Overcast
12:35 PM 65.3 °F 63.3 °F 93% 30.14 in 10.0 mi SW 8.1 mph - N/A   Overcast
12:55 PM 64.9 °F 63.1 °F 94% 30.13 in 10.0 mi SW 4.6 mph - N/A   Overcast
1:15 PM 66.2 °F 63.9 °F 92% 30.13 in 10.0 mi WSW 9.2 mph - N/A   Mostly Cloudy
1:35 PM 65.3 °F 63.0 °F 92% 30.13 in 10.0 mi WSW 9.2 mph 17.3 mph N/A   Mostly Cloudy
1:55 PM 65.5 °F 62.6 °F 90% 30.12 in 10.0 mi WSW 5.8 mph - N/A   Scattered Clouds
2:15 PM 65.5 °F 62.6 °F 90% 30.11 in 10.0 mi WSW 6.9 mph - N/A   Mostly Cloudy
2:35 PM 64.9 °F 62.8 °F 93% 30.11 in 10.0 mi WSW 4.6 mph - N/A   Overcast
2:55 PM 64.8 °F 62.6 °F 93% 30.12 in 10.0 mi WSW 5.8 mph - N/A   Overcast
3:15 PM 64.4 °F 62.4 °F 93% 30.12 in 10.0 mi WSW 3.5 mph - N/A   Overcast
3:35 PM 64.0 °F 62.4 °F 94% 30.11 in 10.0 mi WSW 3.5 mph - N/A   Overcast
3:55 PM 63.7 °F 62.1 °F 94% 30.12 in 10.0 mi West 4.6 mph - N/A   Overcast
4:15 PM 63.3 °F 62.2 °F 96% 30.13 in 10.0 mi West 4.6 mph - N/A   Overcast
4:35 PM 62.2 °F 61.5 °F 97% 30.13 in 7.0 mi WNW 9.2 mph - N/A   Overcast
4:55 PM 60.8 °F 60.4 °F 99% 30.13 in 10.0 mi SW 4.6 mph - N/A   Overcast
5:55 PM 58.8 °F 58.8 °F 100% 30.15 in 7.0 mi WSW 3.5 mph - N/A   Overcast
6:15 PM 58.1 °F 58.1 °F 100% 30.13 in 10.0 mi Calm Calm - N/A   Overcast
6:35 PM 57.6 °F 57.6 °F 100% 30.13 in 10.0 mi SSW 4.6 mph - N/A   Overcast
6:55 PM 57.4 °F 57.4 °F 100% 30.15 in 10.0 mi SSW 4.6 mph - N/A   Overcast
7:15 PM 57.2 °F 57.2 °F 100% 30.12 in 10.0 mi Calm Calm - N/A   Overcast
7:35 PM 56.7 °F 56.7 °F 100% 30.13 in 7.0 mi West 4.6 mph - N/A   Overcast
7:55 PM 56.5 °F 56.5 °F 100% 30.13 in 10.0 mi Calm Calm - N/A   Overcast
8:15 PM 56.3 °F 56.3 °F 100% 30.12 in 10.0 mi WNW 3.5 mph - N/A   Overcast
8:55 PM 55.6 °F 55.6 °F 100% 30.12 in 7.0 mi Calm Calm - N/A   Overcast
9:15 PM 55.4 °F 55.4 °F 100% 30.15 in 7.0 mi WSW 5.8 mph - N/A   Overcast
9:35 PM 54.9 °F 54.9 °F 100% 30.14 in 10.0 mi WSW 3.5 mph - N/A   Overcast
9:55 PM 54.5 °F 54.5 °F 100% 30.15 in 10.0 mi SW 4.6 mph - N/A   Overcast
10:15 PM 54.5 °F 54.5 °F 100% 30.14 in 7.0 mi SW 4.6 mph - N/A   Overcast
10:35 PM 54.1 °F 54.1 °F 100% 30.11 in 7.0 mi South 3.5 mph - N/A   Overcast
10:55 PM 53.8 °F 53.8 °F 100% 30.11 in 10.0 mi SSW 3.5 mph - N/A   Overcast
11:15 PM 53.8 °F 53.8 °F 100% 30.14 in 10.0 mi West 4.6 mph - N/A   Overcast
11:35 PM 53.8 °F 53.8 °F 100% 30.16 in 7.0 mi WSW 3.5 mph - N/A   Overcast
11:55 PM 53.8 °F 53.8 °F 100% 30.15 in 10.0 mi WSW 3.5 mph - N/A   Overcast